This demonstration page uses our WeatherBlox Daily Observations layout. Learn more.

40.92945, -100.16068

Hourly Observations for December 11, 2016

Temp ( °F °C ) Dew Point ( °F °C ) Humidity (%) Winds ( mph kmh ) Pressure ( in mb ) Visibility ( mi km ) Precip ( " mm )
12:15 am 00:15 Clear 28 -2.5 23 -5.1 83 83 S 3 6 29.83 1010 10 16.0934 N/A
12:35 am 00:35 Clear 26 -3.1 22 -5.5 84 84 S 3 6 29.83 1010 10 16.0934 N/A
12:55 am 00:55 Clear 25 -4 21 -6 86 86 S 5 7 29.83 1010 10 16.0934 N/A
1:15 am 01:15 Clear 25 -4 22 -5.7 88 88 Calm 29.83 1010 10 16.0934 N/A
1:35 am 01:35 Clear 22 -5.3 20 -6.9 89 89 SSW 3 6 29.85 1011 10 16.0934 N/A
1:55 am 01:55 Clear 23 -5.2 20 -6.8 89 89 SSE 3 6 29.8 1009 10 16.0934 N/A
2:15 am 02:15 Clear 23 -5 20 -6.7 88 88 SSW 3 6 29.83 1010 10 16.0934 N/A
2:35 am 02:35 Clear 21 -6.2 18 -7.7 89 89 NW 6 9 29.85 1011 10 16.0934 N/A
2:55 am 02:55 Clear 21 -5.9 19 -7.2 91 91 NW 5 7 29.85 1011 10 16.0934 N/A
3:15 am 03:15 Clear 22 -5.5 20 -6.8 91 91 WNW 3 6 29.85 1011 10 16.0934 N/A
3:35 am 03:35 Clear 23 -5 20 -6.5 89 89 WNW 5 7 29.83 1010 10 16.0934 N/A
3:55 am 03:55 Clear 23 -5 20 -6.5 89 89 NW 5 7 29.83 1010 10 16.0934 N/A
4:15 am 04:15 Partly Cloudy 25 -3.9 23 -5.2 91 91 NW 10 17 29.83 1010 10 16.0934 N/A
4:35 am 04:35 Partly Cloudy 30 -1.3 23 -4.8 77 77 N 21 33 29.8 1009 10 16.0934 N/A
4:55 am 04:55 Clear 27 -3 20 -6.9 75 75 NNW 21 33 29.85 1011 10 16.0934 N/A
5:15 am 05:15 Clear 24 -4.2 18 -8 75 75 N 15 24 29.88 1012 10 16.0934 N/A
5:35 am 05:35 Clear 23 -4.9 16 -8.7 75 75 N 15 24 29.91 1013 10 16.0934 N/A
5:55 am 05:55 Clear 23 -5 16 -9 74 74 NNW 16 26 29.91 1013 10 16.0934 N/A
6:15 am 06:15 Partly Cloudy 22 -5.3 16 -9.1 75 75 N 15 24 29.91 1013 10 16.0934 N/A
6:35 am 06:35 Mostly Cloudy 22 -5.5 15 -9.3 75 75 N 16 26 29.94 1014 10 16.0934 N/A
6:55 am 06:55 Mostly Cloudy 22 -5.5 15 -9.3 75 75 N 16 26 29.97 1015 10 16.0934 N/A
7:15 am 07:15 Mostly Cloudy 22 -5.7 15 -9.5 75 75 N 15 24 29.97 1015 10 16.0934 N/A
7:35 am 07:35 Cloudy 22 -5.7 15 -9.6 74 74 N 16 26 29.97 1015 10 16.0934 N/A
7:55 am 07:55 Cloudy 22 -5.7 15 -9.7 74 74 N 14 22 30 1016 10 16.0934 N/A
8:15 am 08:15 Cloudy 22 -5.6 15 -9.7 73 73 N 16 26 30 1016 10 16.0934 N/A
8:35 am 08:35 Cloudy 22 -5.5 15 -9.5 74 74 NNW 13 20 30.03 1017 10 16.0934 N/A
8:55 am 08:55 Cloudy 22 -5.5 15 -9.4 74 74 N 13 20 30.03 1017 10 16.0934 N/A
9:15 am 09:15 Cloudy 22 -5.3 15 -9.2 74 74 NNW 15 24 30.06 1018 10 16.0934 N/A
9:35 am 09:35 Partly Cloudy 22 -5.3 15 -9.3 74 74 NNW 16 26 30.06 1018 10 16.0934 N/A
9:55 am 09:55 Mostly Cloudy 23 -5.1 15 -9.3 73 73 N 13 20 30.06 1018 10 16.0934 N/A
10:15 am 10:15 Partly Cloudy 23 -5.2 15 -9.2 74 74 N 14 22 30.09 1019 10 16.0934 N/A
10:35 am 10:35 Partly Cloudy 23 -5 16 -9.1 73 73 NNW 13 20 30.12 1020 10 16.0934 N/A
10:55 am 10:55 Partly Cloudy 23 -4.8 16 -9 73 73 NNW 14 22 30.12 1020 10 16.0934 N/A
11:15 am 11:15 Sunny 25 -4.1 17 -8.6 71 71 NNW 16 26 30.12 1020 10 16.0934 N/A
11:35 am 11:35 Sunny 26 -3.6 17 -8.5 69 69 NNW 16 26 30.12 1020 10 16.0934 N/A
11:55 am 11:55 Sunny 26 -3.6 16 -8.7 68 68 NNW 10 17 30.09 1019 10 16.0934 N/A
12:15 pm 12:15 Sunny 26 -3.3 16 -8.8 66 66 NNW 13 20 30.09 1019 10 16.0934 N/A
12:35 pm 12:35 Sunny 27 -2.8 16 -8.8 64 64 NW 10 17 30.06 1018 10 16.0934 N/A
12:55 pm 12:55 Sunny 28 -2 16 -9 59 59 NW 13 20 30.06 1018 10 16.0934 N/A
1:15 pm 13:15 Sunny 32 -0.1 15 -9.3 50 50 NW 12 19 30.09 1019 10 16.0934 N/A
1:35 pm 13:35 Sunny 33 0.4 14 -9.9 46 46 N 10 17 30.03 1017 10 16.0934 N/A
1:55 pm 13:55 Sunny 33 0.5 14 -10 46 46 NNW 12 19 30.03 1017 10 16.0934 N/A
2:15 pm 14:15 Sunny 33 0.4 14 -10.1 46 46 NNW 15 24 30.03 1017 10 16.0934 N/A
2:35 pm 14:35 Sunny 32 0.1 14 -9.9 47 47 NNW 13 20 30.06 1018 10 16.0934 N/A
2:55 pm 14:55 Partly Cloudy 33 0.8 14 -9.8 45 45 NW 10 17 30.03 1017 10 16.0934 N/A
3:15 pm 15:15 Sunny 33 0.4 13 -10.7 44 44 NNW 15 24 30.06 1018 10 16.0934 N/A
3:35 pm 15:35 Sunny 33 0.6 13 -10.5 44 44 NNW 12 19 30.06 1018 10 16.0934 N/A
3:55 pm 15:55 Sunny 32 0.1 13 -10.3 46 46 NNW 9 15 30.09 1019 10 16.0934 N/A
4:15 pm 16:15 Sunny 34 1.1 14 -10.2 43 43 NNW 9 15 30.06 1018 10 16.0934 N/A
4:35 pm 16:35 Sunny 34 1 13 -10.4 43 43 NNW 10 17 30.06 1018 10 16.0934 N/A
4:55 pm 16:55 Sunny 32 -0.2 13 -10.5 46 46 NNW 7 11 30.09 1019 10 16.0934 N/A
5:15 pm 17:15 Partly Cloudy 29 -1.5 13 -10.5 51 51 NW 5 7 30.09 1019 10 16.0934 N/A
5:35 pm 17:35 Partly Cloudy 29 -1.9 13 -10.6 52 52 Calm 30.09 1019 10 16.0934 N/A
5:55 pm 17:55 Clear 27 -2.8 13 -10.5 56 56 WSW 5 7 30.15 1021 10 16.0934 N/A
6:15 pm 18:15 Clear 22 -5.5 11 -11.5 63 63 WSW 6 9 30.18 1022 10 16.0934 N/A
6:35 pm 18:35 Clear 22 -5.5 12 -11.1 65 65 Calm 30.18 1022 10 16.0934 N/A
6:55 pm 18:55 Partly Cloudy 23 -5 12 -11.1 63 63 Calm 30.15 1021 10 16.0934 N/A
7:15 pm 19:15 Clear 24 -4.2 13 -10.8 60 60 Calm 30.15 1021 10 16.0934 N/A
7:35 pm 19:35 Clear 19 -7.1 11 -11.4 72 72 NE 6 9 30.18 1022 10 16.0934 N/A
7:55 pm 19:55 Clear 17 -8.2 10 -12.5 71 71 NE 3 6 30.21 1023 10 16.0934 N/A
8:15 pm 20:15 Clear 19 -7.3 11 -11.7 71 71 SE 3 6 30.18 1022 10 16.0934 N/A
8:35 pm 20:35 Clear 16 -8.9 10 -12.2 77 77 SE 5 7 30.21 1023 10 16.0934 N/A
8:55 pm 20:55 Clear 20 -6.6 12 -11.2 70 70 ESE 5 7 30.18 1022 10 16.0934 N/A
9:15 pm 21:15 Clear 19 -7.5 11 -11.4 74 74 ESE 3 6 30.18 1022 10 16.0934 N/A
9:35 pm 21:35 Clear 20 -6.9 12 -11 73 73 SE 5 7 30.18 1022 10 16.0934 N/A
9:55 pm 21:55 Clear 18 -7.8 11 -11.6 74 74 SE 6 9 30.24 1024 10 16.0934 N/A
10:15 pm 22:15 Clear 21 -5.9 13 -10.7 69 69 SE 5 7 30.21 1023 10 16.0934 N/A
10:35 pm 22:35 Clear 19 -7.3 12 -11.2 74 74 ESE 5 7 30.21 1023 10 16.0934 N/A
10:55 pm 22:55 Clear 18 -7.6 12 -11.2 76 76 ESE 5 7 30.21 1023 10 16.0934 N/A
11:15 pm 23:15 Clear 19 -7.3 12 -11.1 75 75 SE 3 6 30.21 1023 10 16.0934 N/A
11:35 pm 23:35 Clear 15 -9.2 10 -12.5 77 77 SSE 3 6 30.24 1024 10 16.0934 N/A
11:55 pm 23:55 Clear 17 -8.6 10 -12 77 77 ESE 3 6 30.24 1024 10 16.0934 N/A

Powered by AerisWeather